Flag for Norway Weather past 2 weeks in Stange, Norway

Now
42 °F

Quite cool.


Feels Like: 42 °F
Forecast: 22 / 43 °F
Wind: 2 mph from Northwest

Location: Haugedalshogda

Current Time: Mar 30, 2015 at 6:40:36 PM

Latest Report: Mar 30, 2015 at 6:00 PM


Visibility: N/A

Pressure: 29.12 "Hg

Humidity: 52%

Dew point: 25 °F

Location of StangeLocation

Historic Weather in Stange — Graph

°F

Stange temperature yesterday

Maximum temperature yesterday: 38 °F (at 4:00 PM)
Minimum temperature yesterday: 31 °F (at 7:00 PM)
Average temperature yesterday: 34 °F

Past Weeks' High & Low Weather Summary

 TemperatureHumidityPressure
High52 °F (Mar 23, 3:00 PM)96% (Mar 18, 5:00 AM)30.96 "Hg (Mar 18, 5:00 AM)
Low18 °F (Mar 21, 10:00 PM)34% (Mar 15, 4:00 PM)29.03 "Hg (Mar 29, 6:00 PM)
Average32 °F79%30.06 "Hg
* Reported Mar 15 4:00 PM — Mar 30 5:00 PM, Stange, Weather by CustomWeather, © 2015

Note: Actual official high and low records may vary slightly from our data, if they occured in-between our weather recording intervals... More about our weather records

Advertising

Stange weather history for previous 24 hours

 ConditionsComfort  
Time TempWeatherWind HumidityBarometerVisibility
5:00 PM
Mon, Mar 30
43 °FQuite cool.5 mph50%29.12 "HgN/A
4:00 PM42 °FQuite cool.3 mph53%29.12 "HgN/A
3:00 PM42 °FQuite cool.3 mph54%29.12 "HgN/A
2:00 PM41 °FQuite cool.5 mph61%29.09 "HgN/A
1:00 PM39 °FChilly.6 mph66%29.09 "HgN/A
12:00 PM37 °FChilly.7 mph71%29.09 "HgN/A
11:00 AM36 °FChilly.7 mph75%29.06 "HgN/A
10:00 AM35 °FChilly.3 mph81%29.06 "HgN/A
9:00 AM33 °FChilly.2 mph87%29.06 "HgN/A
8:00 AM31 °FChilly.3 mph95%29.06 "HgN/A
7:00 AM30 °FChilly.2 mph95%29.03 "HgN/A
6:00 AM31 °FChilly.1 mph94%29.03 "HgN/A
5:00 AM31 °FChilly.1 mph94%29.03 "HgN/A
4:00 AM31 °FChilly.2 mph95%29.03 "HgN/A
3:00 AM31 °FChilly.2 mph93%29.03 "HgN/A
2:00 AM32 °FChilly.2 mph95%29.03 "HgN/A
1:00 AM32 °FChilly.1 mph95%29.03 "HgN/A
12:00 AM31 °FChilly.1 mph95%29.03 "HgN/A
11:00 PM
Sun, Mar 29
32 °FChilly.2 mph94%29.03 "HgN/A
10:00 PM33 °FChilly.1 mph94%29.03 "HgN/A
9:00 PM33 °FChilly.1 mph93%29.03 "HgN/A
8:00 PM33 °FChilly.1 mph93%29.03 "HgN/A
7:00 PM31 °FChilly.1 mph90%29.03 "HgN/A
6:00 PM36 °FChilly.No wind82%29.03 "HgN/A
Weather by CustomWeather, © 2015

See weather overviewHow to use our weather pages